Location: Azul
(36.7830°S, 59.8500°W)
Time: 01:01:55
(UTC-03:00)

NANOSAT C BR1 - Visible Passes

Search period start: 19 September 2024 00:00
Search period end: 29 September 2024 00:00
Orbit: 543 x 550 km, 98.1° (Epoch: 18 September)

Date Brightness Start Highest point End Pass type
(mag) Time Alt. Az. Time Alt. Az. Time Alt. Az.
22 Sep ? 05:03:02 12° SSW 05:03:02 12° SSW 05:03:20 10° SSW visible
23 Sep ? 04:57:03 15° SSW 04:57:03 15° SSW 04:57:51 10° SSW visible
24 Sep ? 04:51:01 20° SSW 04:51:01 20° SSW 04:52:19 10° SSW visible
25 Sep ? 04:44:57 25° SSW 04:44:57 25° SSW 04:46:42 10° SSW visible
26 Sep ? 04:38:49 32° S 04:38:49 32° S 04:41:02 10° S visible
27 Sep ? 04:32:38 40° S 04:32:38 40° S 04:35:18 10° S visible
28 Sep ? 04:26:24 46° SSE 04:26:24 46° SSE 04:29:32 10° S visible
